Vorticity
8 12 10 9 8 6 6 5 7 6 4 5 4 4 5 6 8 9 9 11 11 8
10 7 8 8 6 7 7 6 4 5 4 4 5 6 7 8 9 10 11 9 5 6
8 9 7 6 7 5 4 5 5 4 4 5 7 7 8 9 10 11 7 7 7 4
9 6 4 4 5 5 6 4 3 4 6 6 7 10 12 12 11 9 8 4 1 2
5 2 5 6 3 5 4 3 4 5 6 10 13 12 12 11 7 4 1 2 2 2
5 6 4 4 5 2 3 4 5 9 13 15 13 12 6 4 3 3 1 3 5 8
5 4 2 4 2 2 5 5 10 15 15 13 6 4 4 3 3 3 3 6 11 14
2 3 2 2 2 4 5 9 18 15 6 3 4 3 5 7 5 2 8 15 15 17
1 1 2 1 4 5 8 21 14 1 2 2 5 9 8 5 7 13 13 15 20 22
0 2 2 4 6 8 25 12 1 1 -1 -5 -0 -6 -3 6 12 16 19 21 22 25
2 3 5 6 9 26 10 3 -0 -2 -1 -3 7 -1 -5 7 16 23 24 25 25 21
4 5 6 9 23 8 3 -1 2 1 1 2 8 -1 -2 15 26 27 27 24 21 15
5 6 11 18 8 4 -1 -1 5 2 -2 1 8 -2 15 25 24 27 26 21 15 10
5 15 15 9 6 -1 -1 1 4 3 1 4 1 9 25 28 27 22 16 10 9 6
Height
5731 5728 5725 5722 5718 5714 5710 5706 5701 5695 5689 5683 5676 5669 5662 5653 5645 5637 5627 5618 5608 5598
5724 5721 5718 5714 5710 5706 5701 5696 5691 5684 5677 5670 5663 5655 5647 5638 5628 5619 5609 5599 5590 5580
5717 5714 5710 5706 5702 5696 5691 5685 5679 5672 5664 5656 5647 5638 5630 5620 5610 5601 5591 5582 5572 5561
5709 5705 5701 5697 5692 5686 5680 5673 5666 5658 5650 5641 5631 5622 5613 5604 5594 5585 5575 5564 5552 5539
5700 5696 5692 5687 5681 5675 5668 5660 5652 5644 5635 5625 5615 5607 5598 5589 5579 5568 5557 5544 5529 5514
5691 5687 5682 5676 5670 5663 5655 5646 5637 5628 5619 5610 5601 5592 5582 5573 5562 5550 5536 5521 5505 5488
5681 5676 5671 5665 5658 5649 5641 5632 5623 5613 5604 5596 5586 5576 5565 5555 5544 5530 5514 5498 5480 5463
5671 5666 5659 5652 5644 5636 5627 5618 5608 5599 5591 5581 5569 5559 5548 5537 5524 5509 5492 5474 5456 5438
5661 5655 5647 5640 5631 5622 5613 5604 5595 5585 5575 5565 5554 5542 5529 5514 5500 5483 5465 5449 5433 5416
5650 5643 5635 5627 5618 5609 5599 5591 5581 5571 5560 5549 5536 5522 5507 5491 5475 5458 5440 5424 5410 5397
5638 5631 5622 5614 5605 5596 5587 5577 5568 5557 5545 5533 5518 5502 5486 5470 5453 5436 5418 5402 5388 5377
5626 5618 5609 5601 5592 5583 5575 5564 5554 5542 5529 5515 5498 5481 5463 5446 5430 5414 5398 5384 5372 5360
5613 5605 5597 5587 5580 5571 5561 5551 5538 5525 5510 5493 5479 5460 5441 5420 5403 5392 5381 5370 5358 5347
5601 5592 5583 5575 5568 5559 5548 5536 5523 5509 5493 5476 5456 5438 5417 5399 5382 5369 5362 5353 5344 5332